Location: Niverville
(49.6028°N, 97.0419°W)
Time: 03:05:35
(UTC-06:00)

ISS - All Passes

Search period start: 24 November 2014 00:00
Search period end: 04 December 2014 00:00
Orbit: 408 x 417 km, 51.6° (Epoch: 24 November)

Date Brightness Start Highest point End Pass type
(mag) Time Alt. Az. Time Alt. Az. Time Alt. Az.
24 Nov - 00:11:53 10° SSE 00:13:21 13° SE 00:14:50 10° ESE night (unlit)
24 Nov - 01:46:13 10° SW 01:49:27 57° SSE 01:52:42 10° ENE night (unlit)
24 Nov - 03:22:52 10° W 03:26:08 61° N 03:29:25 10° ENE night (unlit)
24 Nov - 04:59:40 10° WNW 05:02:59 75° NNE 05:06:17 10° E visible
24 Nov - 06:36:28 10° W 06:39:28 32° SSW 06:42:28 10° SSE visible
25 Nov - 00:56:41 10° SW 00:59:45 38° SSE 01:02:51 10° E night (unlit)
25 Nov - 02:33:01 10° W 02:36:19 70° NNW 02:39:36 10° ENE night (unlit)
25 Nov - 04:09:53 10° WNW 04:13:10 64° N 04:16:27 10° E visible
25 Nov - 05:46:35 10° WNW 05:49:47 48° SSW 05:52:59 10° SE visible
25 Nov - 07:25:18 10° SW 07:25:48 10° SW 07:26:18 10° SW daylight
26 Nov - 00:07:17 10° SSW 00:10:04 25° SE 00:12:51 10° E night (unlit)
26 Nov - 01:43:10 10° WSW 01:46:28 86° NNW 01:49:46 10° ENE night (unlit)
26 Nov - 03:20:01 10° WNW 03:23:16 58° N 03:26:33 10° E night (unlit)
26 Nov - 04:56:43 10° WNW 05:00:01 70° SSW 05:03:18 10° ESE visible
26 Nov - 06:34:03 10° W 06:36:13 16° SW 06:38:22 10° S visible
26 Nov - 23:18:11 10° S 23:20:23 17° SE 23:22:35 10° E night (unlit)
27 Nov - 00:53:19 10° WSW 00:56:36 72° SSE 00:59:53 10° ENE night (unlit)
27 Nov - 02:30:04 10° W 02:33:20 58° N 02:36:36 10° ENE night (unlit)
27 Nov - 04:06:50 10° WNW 04:10:08 87° NNE 04:13:27 10° ESE visible
27 Nov - 05:43:45 10° W 05:46:31 25° SW 05:49:16 10° SSE visible
27 Nov - 22:29:58 10° SSE 22:30:42 11° SE 22:31:27 10° ESE night (unlit)
28 Nov - 00:03:31 10° SW 00:06:43 50° SSE 00:09:55 10° ENE night (unlit)
28 Nov - 01:40:04 10° W 01:43:21 63° N 01:46:38 10° ENE night (unlit)
28 Nov - 03:16:53 10° WNW 03:20:11 70° NNE 03:23:29 10° E night (unlit)
28 Nov - 04:53:38 10° W 04:56:43 37° SSW 04:59:47 10° SE visible
28 Nov - 23:13:51 10° SSW 23:16:50 33° SSE 23:19:51 10° E night (unlit)
29 Nov - 00:50:02 10° W 00:53:20 74° NNW 00:56:38 10° ENE night (unlit)
29 Nov - 02:26:53 10° WNW 02:30:09 61° N 02:33:26 10° E night (unlit)
29 Nov - 04:03:34 10° WNW 04:06:49 55° SSW 04:10:03 10° SE night (unlit)
29 Nov - 05:41:29 10° WSW 05:42:53 12° SW 05:44:16 10° SSW visible
29 Nov - 22:24:21 10° SSW 22:26:58 22° SE 22:29:36 10° E night (unlit)
29 Nov - 23:59:59 10° WSW 00:03:17 87° SSE 00:06:36 10° ENE night (unlit)
30 Nov - 01:36:48 10° W 01:40:04 58° N 01:43:20 10° E night (unlit)
30 Nov - 03:13:31 10° WNW 03:16:49 79° SSW 03:20:07 10° ESE night (unlit)
30 Nov - 04:50:39 10° W 04:53:04 19° SW 04:55:29 10° S visible
30 Nov - 21:35:14 10° S 21:37:06 14° SE 21:38:58 10° ESE night (unlit)
30 Nov - 23:09:58 10° WSW 23:13:14 63° SSE 23:16:30 10° ENE night (unlit)
01 Dec - 00:46:39 10° W 00:49:55 59° N 00:53:11 10° ENE night (unlit)
01 Dec - 02:23:25 10° WNW 02:26:44 80° NNE 02:30:02 10° ESE night (unlit)
01 Dec - 04:00:15 10° W 04:03:09 29° SW 04:06:03 10° SSE night (unlit)
01 Dec - 22:20:02 10° SW 22:23:10 43° SSE 22:26:19 10° ENE night (unlit)
01 Dec - 23:56:27 10° W 23:59:44 66° N 00:03:01 10° ENE night (unlit)
02 Dec - 01:33:16 10° WNW 01:36:34 66° N 01:39:51 10° E night (unlit)
02 Dec - 03:09:59 10° WNW 03:13:08 43° SSW 03:16:16 10° SE night (unlit)
02 Dec - 21:30:13 10° SSW 21:33:06 28° SE 21:36:00 10° E night (unlit)
02 Dec - 23:06:13 10° WSW 23:09:31 81° NNW 23:12:50 10° ENE night (unlit)
03 Dec - 00:43:03 10° WNW 00:46:19 59° N 00:49:35 10° E night (unlit)
03 Dec - 02:19:44 10° WNW 02:23:00 64° SSW 02:26:16 10° ESE night (unlit)
03 Dec - 03:57:14 10° WSW 03:59:08 15° SW 04:01:01 10° S night (unlit)
03 Dec - 20:40:40 10° S 20:43:03 19° SE 20:45:27 10° E night (unlit)
03 Dec - 22:15:59 10° WSW 22:19:17 78° SSE 22:22:35 10° ENE night (unlit)
03 Dec - 23:52:46 10° W 23:56:01 58° N 23:59:17 10° E night (unlit)
